timestamp,wind_dir_avg,wind_spd_avg,wind_spd_max_dir,wind_spd_gust,battery_voltage,lat,long
2023-12-09 00:04:00+00:00,306.0,10.84,306.0,13.61,12.41,47.59359,-54.27349
2023-12-09 00:14:00+00:00,302.0,11.75,302.0,14.21,12.41,47.59359,-54.27349
2023-12-09 00:24:00+00:00,306.0,10.37,311.0,12.23,12.41,47.59359,-54.27349
2023-12-09 00:34:00+00:00,303.0,11.89,304.0,13.81,12.41,47.59359,-54.27349
2023-12-09 00:44:00+00:00,308.0,10.35,310.0,12.81,12.41,47.59359,-54.27349
2023-12-09 00:54:00+00:00,308.0,10.42,314.0,11.95,12.41,47.59359,-54.27349
2023-12-09 01:04:00+00:00,307.0,12.72,313.0,15.37,12.41,47.59359,-54.27349
2023-12-09 01:14:00+00:00,310.0,11.3,311.0,12.87,12.33,47.59359,-54.27349
2023-12-09 01:24:00+00:00,308.0,10.93,317.0,14.0,12.33,47.59359,-54.27349
2023-12-09 01:34:00+00:00,299.0,9.95,302.0,11.98,12.33,47.59359,-54.27349
2023-12-09 01:44:00+00:00,305.0,12.63,291.0,19.33,12.33,47.59359,-54.27349
2023-12-09 01:54:00+00:00,309.0,11.08,311.0,13.52,12.33,47.59359,-54.27349
2023-12-09 02:04:00+00:00,304.0,10.39,310.0,12.3,12.33,47.59359,-54.27349
2023-12-09 02:14:00+00:00,301.0,10.96,310.0,14.18,12.33,47.59359,-54.27349
2023-12-09 02:24:00+00:00,304.0,9.87,303.0,12.08,12.33,47.59359,-54.27349
2023-12-09 02:34:00+00:00,313.0,11.25,320.0,14.8,12.33,47.59359,-54.27349
2023-12-09 02:44:00+00:00,311.0,11.77,310.0,14.19,12.33,47.59359,-54.27349
2023-12-09 02:54:00+00:00,308.0,11.64,309.0,13.3,12.33,47.59359,-54.27349
2023-12-09 03:04:00+00:00,307.0,10.07,318.0,12.42,12.33,47.59359,-54.27349
2023-12-09 03:14:00+00:00,312.0,9.39,314.0,11.83,12.33,47.59359,-54.27349
2023-12-09 03:24:00+00:00,308.0,10.18,307.0,12.23,12.33,47.59359,-54.27349
2023-12-09 03:34:00+00:00,309.0,11.51,314.0,13.86,12.33,47.59359,-54.27349
2023-12-09 03:44:00+00:00,317.0,13.32,323.0,15.22,12.33,47.59359,-54.27349
2023-12-09 03:54:00+00:00,308.0,12.29,299.0,14.74,12.33,47.59359,-54.27349
2023-12-09 04:04:00+00:00,310.0,10.64,309.0,11.9,12.33,47.59359,-54.27349
2023-12-09 04:14:00+00:00,318.0,13.16,316.0,16.02,12.25,47.59359,-54.27349
2023-12-09 04:24:00+00:00,308.0,12.82,310.0,16.48,12.25,47.59359,-54.27349
2023-12-09 04:34:00+00:00,314.0,11.1,320.0,14.39,12.25,47.59359,-54.27349
2023-12-09 04:44:00+00:00,317.0,12.78,324.0,15.63,12.25,47.59359,-54.27349
2023-12-09 04:54:00+00:00,316.0,12.32,328.0,16.5,12.25,47.59359,-54.27349
2023-12-09 05:04:00+00:00,315.0,12.89,325.0,15.86,12.25,47.59359,-54.27349
2023-12-09 05:14:00+00:00,316.0,11.44,323.0,15.42,12.25,47.59359,-54.27349
2023-12-09 05:24:00+00:00,315.0,10.53,323.0,12.8,12.25,47.59359,-54.27349
2023-12-09 05:34:00+00:00,307.0,12.47,302.0,20.76,12.25,47.59359,-54.27349
2023-12-09 05:44:00+00:00,311.0,10.77,314.0,12.37,12.25,47.59359,-54.27349
2023-12-09 05:54:00+00:00,322.0,11.35,317.0,14.05,12.25,47.59359,-54.27349
2023-12-09 06:04:00+00:00,313.0,12.76,311.0,14.82,12.25,47.59359,-54.27349
2023-12-09 06:14:00+00:00,317.0,11.24,312.0,13.01,12.25,47.59359,-54.27349
2023-12-09 06:24:00+00:00,308.0,13.92,297.0,17.51,12.25,47.59359,-54.27349
2023-12-09 06:34:00+00:00,314.0,13.71,318.0,15.81,12.25,47.59359,-54.27349
2023-12-09 06:44:00+00:00,319.0,11.38,321.0,13.05,12.25,47.59359,-54.27349
2023-12-09 06:54:00+00:00,317.0,12.42,309.0,16.0,12.25,47.59359,-54.27349
2023-12-09 07:04:00+00:00,310.0,10.36,313.0,11.7,12.25,47.59359,-54.27349
2023-12-09 07:14:01+00:00,316.0,11.98,315.0,13.73,12.25,47.59359,-54.27349
2023-12-09 07:24:01+00:00,314.0,13.73,310.0,15.45,12.25,47.59359,-54.27349
2023-12-09 07:34:01+00:00,322.0,12.2,331.0,14.48,12.25,47.59359,-54.27349
2023-12-09 07:44:01+00:00,318.0,13.48,312.0,16.13,12.25,47.59359,-54.27349
2023-12-09 07:54:01+00:00,327.0,13.62,325.0,16.15,12.25,47.59359,-54.27349
2023-12-09 08:04:01+00:00,327.0,13.26,330.0,16.54,12.25,47.59359,-54.27349
2023-12-09 08:14:00+00:00,327.0,11.52,331.0,14.44,12.17,47.59359,-54.27349
2023-12-09 08:24:00+00:00,324.0,11.81,325.0,13.96,12.17,47.59359,-54.27349
2023-12-09 08:34:00+00:00,326.0,12.77,325.0,15.55,12.17,47.59359,-54.27349
2023-12-09 08:44:00+00:00,325.0,12.83,330.0,16.16,12.17,47.59359,-54.27349
2023-12-09 08:54:00+00:00,329.0,11.48,328.0,13.69,12.17,47.59359,-54.27349
2023-12-09 09:04:00+00:00,329.0,11.79,325.0,15.29,12.17,47.59359,-54.27349
2023-12-09 09:14:00+00:00,326.0,11.59,329.0,13.01,12.17,47.59359,-54.27349
2023-12-09 09:24:00+00:00,325.0,10.4,322.0,12.24,12.17,47.59359,-54.27349
2023-12-09 09:34:00+00:00,329.0,12.13,324.0,15.2,12.17,47.59359,-54.27349
2023-12-09 09:44:00+00:00,328.0,11.91,328.0,14.36,12.17,47.59359,-54.27349
2023-12-09 09:54:00+00:00,322.0,12.49,313.0,14.67,12.17,47.59359,-54.27349
2023-12-09 10:04:00+00:00,327.0,12.52,327.0,15.36,12.17,47.59359,-54.27349
2023-12-09 10:14:01+00:00,336.0,11.29,334.0,14.28,12.17,47.59359,-54.27349
2023-12-09 10:24:01+00:00,327.0,13.07,329.0,15.31,12.17,47.59359,-54.27349
2023-12-09 10:34:01+00:00,338.0,12.97,344.0,15.08,12.17,47.59359,-54.27349
2023-12-09 10:44:01+00:00,342.0,11.88,350.0,15.25,12.17,47.59359,-54.27349
2023-12-09 10:54:01+00:00,342.0,11.58,347.0,14.05,12.17,47.59359,-54.27349
2023-12-09 11:04:01+00:00,348.0,12.19,346.0,14.69,12.17,47.59359,-54.27349
2023-12-09 11:14:00+00:00,347.0,13.45,354.0,16.3,12.17,47.59359,-54.27349
2023-12-09 11:24:00+00:00,342.0,12.6,336.0,15.45,12.17,47.59359,-54.27349
2023-12-09 11:34:00+00:00,334.0,11.22,330.0,13.31,12.17,47.59359,-54.27349
2023-12-09 11:44:00+00:00,336.0,12.75,332.0,16.84,12.17,47.59359,-54.27349
2023-12-09 11:54:00+00:00,345.0,11.66,342.0,14.06,12.17,47.59359,-54.27349
2023-12-09 12:04:00+00:00,344.0,10.64,339.0,12.97,12.17,47.59359,-54.27349
2023-12-09 12:14:00+00:00,350.0,11.4,356.0,14.54,12.41,47.59359,-54.27349
2023-12-09 12:24:00+00:00,347.0,14.32,340.0,17.01,12.41,47.59359,-54.27349
2023-12-09 12:34:00+00:00,349.0,13.41,355.0,17.92,12.41,47.59359,-54.27349
2023-12-09 12:44:00+00:00,342.0,15.75,346.0,17.84,12.41,47.59359,-54.27349
2023-12-09 12:54:00+00:00,341.0,14.97,336.0,17.5,12.41,47.59359,-54.27349
2023-12-09 13:04:00+00:00,348.0,17.06,352.0,20.38,12.41,47.59359,-54.27349
2023-12-09 13:14:00+00:00,347.0,15.37,348.0,17.18,13.21,47.59359,-54.27349
2023-12-09 13:24:00+00:00,349.0,14.81,338.0,18.06,13.21,47.59359,-54.27349
2023-12-09 13:34:00+00:00,353.0,15.35,353.0,19.72,13.21,47.59359,-54.27349
2023-12-09 13:44:00+00:00,354.0,16.5,356.0,19.73,13.21,47.59359,-54.27349
2023-12-09 13:54:00+00:00,356.0,14.3,359.0,16.8,13.21,47.59359,-54.27349
2023-12-09 14:04:00+00:00,348.0,17.02,340.0,20.21,13.21,47.59359,-54.27349
2023-12-09 14:14:00+00:00,354.0,15.12,350.0,17.45,13.84,47.59359,-54.27349
2023-12-09 14:24:00+00:00,354.0,15.55,351.0,19.43,13.84,47.59359,-54.27349
2023-12-09 14:34:00+00:00,353.0,15.57,356.0,19.73,13.84,47.59359,-54.27349
2023-12-09 14:44:00+00:00,349.0,16.51,349.0,19.05,13.84,47.59359,-54.27349
2023-12-09 14:54:00+00:00,344.0,13.53,345.0,16.08,13.84,47.59359,-54.27349
2023-12-09 15:04:00+00:00,350.0,13.61,346.0,16.36,13.84,47.59359,-54.27349
2023-12-09 15:14:00+00:00,350.0,16.22,336.0,20.66,13.92,47.59359,-54.27349
2023-12-09 15:24:00+00:00,352.0,15.13,353.0,18.02,13.92,47.59359,-54.27349
2023-12-09 15:34:00+00:00,353.0,16.21,354.0,18.87,13.92,47.59359,-54.27349
2023-12-09 15:44:00+00:00,353.0,15.8,356.0,18.36,13.92,47.59359,-54.27349
2023-12-09 15:54:00+00:00,345.0,14.44,344.0,15.92,13.92,47.59359,-54.27349
2023-12-09 16:04:00+00:00,345.0,11.84,352.0,15.22,13.92,47.59359,-54.27349
2023-12-09 16:14:00+00:00,342.0,11.24,348.0,13.71,13.68,47.59359,-54.27349
2023-12-09 16:24:00+00:00,350.0,12.57,347.0,16.13,13.68,47.59359,-54.27349
2023-12-09 16:34:00+00:00,352.0,11.92,356.0,13.6,13.68,47.59359,-54.27349
2023-12-09 16:44:00+00:00,343.0,11.38,345.0,12.65,13.68,47.59359,-54.27349
2023-12-09 16:54:00+00:00,343.0,11.21,340.0,14.49,13.68,47.59359,-54.27349
2023-12-09 17:04:00+00:00,345.0,11.95,347.0,15.18,13.68,47.59359,-54.27349
2023-12-09 17:14:00+00:00,352.0,12.23,354.0,15.18,13.68,47.59359,-54.27349
2023-12-09 17:24:00+00:00,354.0,14.16,358.0,16.43,13.68,47.59359,-54.27349
2023-12-09 17:34:00+00:00,348.0,13.54,356.0,15.81,13.68,47.59359,-54.27349
2023-12-09 17:44:00+00:00,345.0,10.99,349.0,13.09,13.68,47.59359,-54.27349
2023-12-09 17:54:00+00:00,351.0,16.93,352.0,19.44,13.68,47.59359,-54.27349
2023-12-09 18:04:00+00:00,354.0,13.83,353.0,16.25,13.68,47.59359,-54.27349
2023-12-09 18:14:00+00:00,349.0,12.01,356.0,14.07,14.24,47.59359,-54.27349
2023-12-09 18:24:00+00:00,344.0,11.49,344.0,13.27,14.24,47.59359,-54.27349
2023-12-09 18:34:00+00:00,340.0,12.85,328.0,15.18,14.24,47.59359,-54.27349
2023-12-09 18:44:00+00:00,346.0,12.23,336.0,14.48,14.24,47.59359,-54.27349
2023-12-09 18:54:00+00:00,344.0,11.79,346.0,14.07,14.24,47.59359,-54.27349
2023-12-09 19:04:00+00:00,341.0,11.85,345.0,13.85,14.24,47.59359,-54.27349
2023-12-09 19:14:00+00:00,350.0,12.76,353.0,13.91,13.68,47.59359,-54.27349
2023-12-09 19:24:00+00:00,354.0,11.19,0.0,13.9,13.68,47.59359,-54.27349
2023-12-09 19:34:00+00:00,348.0,9.68,349.0,10.85,13.68,47.59359,-54.27349
2023-12-09 19:44:00+00:00,353.0,8.51,355.0,9.98,13.68,47.59359,-54.27349
2023-12-09 19:54:00+00:00,354.0,8.28,356.0,10.21,13.68,47.59359,-54.27349
2023-12-09 20:04:00+00:00,352.0,10.99,350.0,12.89,13.68,47.59359,-54.27349
2023-12-09 20:14:00+00:00,344.0,10.17,344.0,11.99,12.65,47.59359,-54.27349
2023-12-09 20:24:00+00:00,341.0,10.06,330.0,12.34,12.65,47.59359,-54.27349
2023-12-09 20:34:00+00:00,348.0,9.32,351.0,10.9,12.65,47.59359,-54.27349
2023-12-09 20:44:00+00:00,348.0,10.31,343.0,12.55,12.65,47.59359,-54.27349
2023-12-09 20:54:00+00:00,3.0,10.14,355.0,12.58,12.65,47.59359,-54.27349
2023-12-09 21:04:00+00:00,3.0,9.9,1.0,11.1,12.65,47.59359,-54.27349
2023-12-09 21:14:00+00:00,4.0,10.85,358.0,14.04,12.49,47.59359,-54.27349
2023-12-09 21:24:00+00:00,2.0,11.54,10.0,13.84,12.49,47.59359,-54.27349
2023-12-09 21:34:00+00:00,4.0,11.04,2.0,13.72,12.49,47.59359,-54.27349
2023-12-09 21:44:00+00:00,6.0,8.71,3.0,11.23,12.49,47.59359,-54.27349
2023-12-09 21:54:00+00:00,0.0,7.32,354.0,8.79,12.49,47.59359,-54.27349
2023-12-09 22:04:00+00:00,0.0,7.75,358.0,10.17,12.49,47.59359,-54.27349
2023-12-09 22:14:00+00:00,13.0,8.21,0.0,10.24,12.41,47.59359,-54.27349
2023-12-09 22:24:00+00:00,355.0,11.14,354.0,13.73,12.41,47.59359,-54.27349
2023-12-09 22:34:00+00:00,0.0,10.46,4.0,11.94,12.41,47.59359,-54.27349
2023-12-09 22:44:00+00:00,350.0,10.03,359.0,13.61,12.41,47.59359,-54.27349
2023-12-09 22:54:00+00:00,0.0,8.3,357.0,9.54,12.41,47.59359,-54.27349
2023-12-09 23:04:00+00:00,357.0,7.91,5.0,9.25,12.41,47.59359,-54.27349
2023-12-09 23:14:00+00:00,349.0,7.16,356.0,9.22,12.41,47.59359,-54.27349
2023-12-09 23:24:00+00:00,343.0,6.58,356.0,7.65,12.41,47.59359,-54.27349
2023-12-09 23:34:00+00:00,357.0,7.54,350.0,8.9,12.41,47.59359,-54.27349
2023-12-09 23:44:00+00:00,7.0,7.01,10.0,8.54,12.41,47.59359,-54.27349
2023-12-09 23:54:00+00:00,344.0,5.85,338.0,6.42,12.41,47.59359,-54.27349
